Theta_e
324 327 328 325 327 326 331 333 328 330 331 330 333 334 336 338 339 333 338 339 336 338 337 336 335 330 329 329 331 332 331 331 331 332 333 332 330 330 328 327 325 326 330 330 331 331 329 328 326
324 327 326 320 327 333 333 329 332 330 330 331 328 332 336 341 337 339 339 339 336 337 338 335 331 330 330 329 327 328 330 331 330 331 330 329 329 328 328 327 326 326 329 331 329 329 325 326 326
325 328 323 325 325 331 334 330 329 329 330 325 330 330 334 341 336 339 339 338 337 336 338 337 333 331 331 331 328 326 329 332 331 330 331 328 327 327 327 326 326 325 327 328 329 324 322 323 323
324 323 320 327 331 328 330 328 327 328 326 327 329 334 334 335 337 338 340 338 336 335 336 337 335 332 332 332 330 328 330 332 329 329 331 330 328 327 324 323 325 325 326 328 326 322 322 323 326
323 320 327 330 332 329 327 326 325 327 328 330 330 336 337 337 338 339 340 338 337 336 335 335 336 333 332 332 331 330 329 329 330 330 329 327 329 326 324 322 324 326 327 326 325 323 322 323 327
322 320 329 333 332 329 326 326 326 330 331 332 333 334 335 337 339 340 339 338 338 338 337 336 336 335 332 332 332 331 331 329 329 332 331 328 327 326 325 324 322 323 324 324 325 322 321 322 322
323 324 328 328 329 329 327 324 328 327 328 329 329 336 335 336 338 340 338 336 337 337 337 336 335 335 334 332 332 332 331 331 330 328 328 332 329 326 325 324 323 321 319 322 323 321 318 320 321
319 321 326 327 329 331 325 327 324 328 330 326 329 336 339 336 338 338 339 337 337 336 336 335 335 335 335 334 333 332 332 331 330 330 329 328 330 329 326 325 324 323 323 322 322 321 320 318 320
317 321 326 326 327 327 324 327 325 326 331 332 332 331 332 338 338 337 339 338 337 336 336 336 335 335 335 334 334 333 333 333 332 330 329 328 329 331 329 326 325 324 324 323 323 323 323 322 320
317 318 325 325 323 324 325 327 327 331 333 336 336 333 336 337 336 336 337 338 338 337 336 336 336 335 335 334 334 334 334 332 334 334 331 329 328 328 329 329 327 326 325 324 324 324 324 323 323
319 322 321 325 325 322 323 325 324 328 332 333 335 335 334 335 335 335 336 337 337 337 337 337 336 336 335 335 335 335 334 332 332 331 331 331 330 328 327 328 327 327 328 326 326 325 325 324 324
321 319 322 324 322 323 324 322 327 326 326 327 331 334 334 334 334 335 336 336 337 337 337 336 336 336 336 336 336 335 334 333 332 332 331 330 330 330 331 330 329 327 327 327 327 327 326 325 325
320 319 323 322 322 322 321 322 322 324 321 325 331 332 333 334 334 336 337 336 336 336 337 337 336 336 336 336 336 336 335 335 333 332 331 331 331 329 329 329 331 331 329 328 327 327 326 326 326
317 318 321 323 323 322 324 324 322 322 321 327 331 331 330 331 333 334 334 336 335 336 336 336 337 337 337 336 336 335 335 335 335 334 333 333 332 331 331 329 329 329 330 330 329 328 327 326 326
317 318 320 322 323 323 321 324 325 319 320 327 329 329 329 329 331 332 334 331 326 328 326 326 329 332 333 333 331 335 336 336 336 335 334 334 333 333 331 330 329 329 329 329 328 327 327 327 327
316 315 319 318 322 321 317 317 317 318 319 322 320 319 318 319 324 329 325 321 319 319 318 317 317 317 317 317 317 318 324 333 335 335 335 334 334 333 331 331 330 327 329 330 330 328 327 328 326
313 317 317 317 317 320 320 319 316 314 316 318 316 315 315 315 316 319 319 318 318 318 317 316 316 315 315 315 315 316 317 319 321 328 333 333 334 331 331 331 331 329 329 330 331 330 330 329 328
316 317 314 315 312 318 319 320 316 312 310 311 311 310 311 312 314 317 317 316 316 315 315 315 315 315 314 314 314 314 315 316 318 321 324 328 332 332 331 332 331 329 328 329 329 330 331 330 330
313 314 312 310 310 312 314 316 316 315 312 310 309 308 308 309 311 313 313 313 314 314 314 314 314 313 313 313 315 315 315 318 319 321 322 327 330 331 331 329 325 324 324 325 325 327 327 327 327
312 312 311 311 311 312 312 312 311 311 311 310 311 309 308 308 308 309 310 312 312 313 312 312 312 312 312 313 315 317 318 322 324 326 326 327 329 330 330 327 325 324 324 324 324 325 325 325 325
313 311 311 310 312 310 311 310 312 311 310 309 308 309 308 308 307 307 309 311 311 311 311 311 310 310 312 315 319 319 317 322 323 324 325 326 328 328 326 326 324 323 325 325 325 325 325 325 325
318 313 312 313 313 313 310 310 310 308 308 308 308 308 309 307 306 306 308 308 308 309 309 309 309 310 312 317 319 317 318 320 317 319 318 320 321 322 321 322 322 321 321 321 320 320 322 323 324
315 313 314 314 314 315 314 314 309 309 310 309 308 307 305 305 306 307 307 308 308 307 306 306 308 310 312 316 319 320 318 317 315 314 314 313 312 313 314 316 316 316 317 316 314 315 317 319 320
313 314 315 313 313 316 312 311 307 307 309 309 307 306 305 304 304 305 307 307 305 303 303 305 306 307 309 312 314 315 315 312 310 309 309 308 307 307 307 306 306 306 306 306 307 308 310 313 313
315 314 312 311 312 312 309 312 309 307 306 306 307 306 306 305 304 303 303 303 302 301 301 302 303 304 305 307 308 308 309 308 308 306 306 303 301 299 298 297 297 298 298 299 300 302 303 305 307
316 314 316 315 314 311 309 314 310 308 307 307 306 306 307 306 304 303 303 302 301 300 300 300 301 300 300 302 302 301 300 301 300 299 298 297 296 296 296 296 296 296 296 297 297 297 297 296 297
316 318 310 311 300 306 308 307 305 306 306 306 307 307 307 306 303 302 301 302 302 300 299 299 299 299 299 299 299 298 297 297 296 296 295 295 295 295 294 294 294 295 295 295 295 295 294 293 293
314 313 317 313 310 308 310 308 309 308 308 307 309 308 307 305 303 301 300 301 301 301 300 298 298 298 298 297 297 296 296 295 295 294 294 293 292 292 292 292 292 293 293 292 292 292 291 292 291
315 316 316 314 308 308 307 308 303 306 305 306 305 307 307 305 303 301 300 301 301 300 299 299 297 296 296 296 296 295 295 294 293 292 291 290 290 290 291 291 291 291 290 290 290 290 290 289 288
313 315 316 316 312 311 311 312 305 303 303 305 305 304 303 305 302 301 300 300 299 299 297 297 296 296 296 295 295 294 293 292 291 291 290 289 289 289 289 289 289 289 288 288 288 288 288 286 285
Wind_Speed
23 6 6 4 4 5 1 1 1 2 4 5 3 6 8 4 2 3 2 14 17 20 16 14 13 12 11 11 11 11 11 9 8 9 8 8 9 10 10 10 9 10 10 10 10 11 12 13 12
16 2 4 3 5 4 3 2 4 3 6 7 6 4 6 3 2 5 9 16 18 20 17 15 13 12 12 11 10 10 11 9 9 9 9 8 7 8 7 9 8 7 8 9 9 9 8 8 8
3 3 3 4 4 4 5 4 5 5 8 2 4 4 3 2 3 11 12 20 19 18 16 15 13 12 11 10 9 9 11 9 8 7 8 8 7 8 7 7 8 7 7 6 7 6 5 5 4
3 5 4 4 4 2 6 7 5 7 2 4 4 6 2 1 6 8 22 19 19 17 15 14 13 11 10 9 8 8 9 9 7 6 8 7 7 6 4 7 6 6 5 5 3 1 1 2 2
4 3 4 4 2 1 1 5 9 6 5 2 1 3 2 3 7 23 20 19 18 17 15 13 13 11 10 9 8 8 7 7 6 4 5 4 5 4 2 4 5 6 5 3 2 2 2 1 3
4 3 5 4 2 2 2 4 4 3 3 4 5 5 0 5 21 22 20 16 15 15 14 12 13 11 10 9 8 8 7 7 7 7 6 5 5 4 3 3 7 7 7 4 3 3 4 5 2
5 3 4 5 5 3 3 5 7 7 6 2 7 5 1 4 16 21 18 15 14 13 12 9 12 12 11 9 8 8 7 7 7 6 8 8 7 7 6 5 4 4 5 8 8 6 5 6 6
4 4 4 3 5 5 5 2 5 4 3 4 5 6 6 11 18 18 18 17 15 14 11 10 10 12 12 11 9 8 7 6 6 7 7 8 10 9 8 7 7 6 5 5 6 6 6 6 8
2 4 3 7 7 4 4 6 0 1 6 3 2 5 7 24 20 17 18 16 16 15 13 11 11 11 11 10 10 9 8 7 7 8 9 9 9 11 10 10 9 10 10 10 9 9 8 9 9
5 3 2 1 3 6 5 6 9 5 3 3 3 4 22 24 22 22 20 19 18 18 17 15 14 12 11 10 10 10 8 8 8 8 10 10 10 11 12 12 11 11 13 13 12 12 12 12 12
2 4 1 3 2 5 7 5 1 10 2 6 10 9 13 17 20 22 22 22 23 20 18 18 17 14 13 12 11 12 11 10 10 10 9 8 9 10 12 13 13 13 14 15 14 14 14 15 15
3 1 1 4 5 3 5 6 4 3 6 8 10 17 14 11 16 22 24 23 22 20 19 18 16 16 15 14 15 13 14 13 13 12 11 11 11 12 12 13 13 14 13 15 17 16 16 16 15
2 2 3 3 6 5 6 4 2 4 5 6 11 8 11 12 17 25 26 23 21 21 20 19 18 18 16 16 16 16 17 17 16 14 14 12 13 12 13 15 15 14 14 15 16 17 17 17 16
1 3 3 3 3 3 5 2 2 1 3 7 10 10 8 9 19 19 20 21 21 23 21 19 21 19 17 18 18 19 19 19 19 19 18 17 15 16 15 13 15 16 15 14 15 16 17 17 17
2 2 4 4 3 2 4 2 5 0 5 7 8 7 7 12 15 20 23 21 18 17 16 14 14 16 18 19 19 22 24 23 23 21 20 20 20 19 16 16 15 16 16 16 16 16 17 17 17
4 5 2 3 1 2 2 7 7 5 7 8 7 7 7 7 19 23 21 19 16 16 17 15 14 13 13 13 14 16 18 23 26 25 22 20 19 18 18 18 16 15 17 17 18 18 19 20 20
6 3 3 5 7 2 3 6 3 5 6 8 8 8 8 9 12 18 19 18 17 18 19 17 14 13 12 13 15 15 15 17 19 21 22 21 20 15 16 15 15 15 16 16 17 18 19 21 23
6 5 5 6 3 3 4 8 7 2 5 9 7 8 8 8 12 17 17 16 17 18 18 15 14 13 13 13 13 14 14 14 15 15 16 18 19 18 17 14 11 11 13 15 16 17 17 18 18
6 4 4 2 2 1 7 7 12 7 4 8 9 8 8 9 14 14 15 17 18 16 15 14 12 11 11 11 8 6 7 7 10 11 14 12 13 13 10 7 6 10 12 14 13 12 12 15 15
3 4 4 3 4 2 4 8 9 8 7 8 11 10 10 6 6 10 16 17 18 17 14 12 11 9 9 8 6 4 6 5 5 5 7 9 9 9 9 6 8 7 10 10 10 9 10 13 14
3 6 4 3 4 2 5 6 7 9 4 7 8 11 9 13 11 8 17 23 20 18 15 12 10 8 7 6 5 9 8 9 8 8 9 8 8 8 6 7 7 9 10 10 8 8 7 10 13
6 6 5 3 3 4 2 6 6 6 9 7 10 13 17 12 8 9 17 21 22 19 16 13 10 8 6 5 6 11 15 11 6 8 9 9 7 6 5 4 5 5 3 6 6 5 5 8 12
6 6 8 5 3 1 1 3 6 3 7 13 14 14 12 10 10 13 18 25 22 19 17 13 9 7 6 5 5 9 13 11 12 10 9 7 5 4 2 2 3 3 4 5 6 6 6 4 4
7 6 5 4 3 5 8 7 5 6 9 5 6 8 8 8 10 10 17 24 21 18 15 12 10 8 7 7 8 9 12 15 14 11 8 6 4 3 2 2 2 2 2 2 3 4 3 3 3
3 7 2 2 0 7 2 6 14 8 11 7 9 9 6 4 6 7 11 20 24 22 18 15 13 11 10 10 10 10 11 12 11 10 9 8 6 5 4 3 2 2 2 2 1 1 0 0 1
8 7 5 7 5 4 2 7 6 8 9 9 9 7 4 5 7 9 14 19 24 23 20 18 16 14 12 11 11 10 10 10 10 9 8 7 6 4 2 1 1 1 1 0 1 1 1 2 3
6 10 5 4 3 2 4 6 8 11 11 5 8 5 8 7 7 7 11 21 25 24 22 19 18 16 14 13 12 11 10 9 8 8 7 6 5 4 3 3 2 1 1 2 2 2 3 4 5
8 9 2 2 1 4 5 5 7 4 9 7 5 8 6 3 5 6 11 18 22 21 20 18 17 17 15 13 11 10 10 9 9 7 7 6 6 5 5 4 4 4 3 3 3 4 6 7 8
4 5 5 5 5 5 2 6 7 9 6 8 7 8 7 7 7 7 9 18 21 21 21 21 21 19 17 15 14 13 12 11 9 8 8 7 6 5 5 6 6 5 4 5 6 7 8 9 10
13 11 12 6 5 4 3 11 5 6 6 4 6 6 6 6 7 7 10 18 22 24 24 24 23 22 20 17 16 15 14 13 12 11 10 9 8 7 8 9 7 6 6 8 9 10 11 11 11
Wind_Direction
344 356 138 65 60 65 30 265 244 141 59 333 72 114 119 53 98 176 149 157 154 149 152 150 149 141 136 135 136 139 130 118 121 125 121 112 105 106 103 100 112 96 85 90 93 92 97 100 90
339 114 75 84 89 85 268 259 197 182 147 155 86 76 50 84 96 122 119 170 158 153 155 152 149 142 137 133 134 146 142 146 126 130 133 123 123 122 118 116 115 111 92 90 84 86 96 100 95
15 106 85 92 105 150 173 193 177 157 149 161 103 66 93 92 86 151 151 157 160 157 160 159 154 148 146 140 132 137 148 148 137 130 143 138 126 135 131 131 126 122 109 110 94 90 94 100 103
1 24 37 85 133 209 178 182 182 121 344 50 117 69 44 262 178 168 154 153 158 160 165 169 164 157 156 148 140 138 149 155 149 137 150 157 155 149 130 156 142 154 131 123 121 110 127 100 120
43 55 60 76 90 87 165 170 158 143 129 78 82 133 55 7 164 151 152 152 158 162 163 173 175 170 168 162 157 154 158 164 161 170 170 165 179 176 169 169 177 156 167 179 200 254 226 147 97
40 86 67 116 99 58 33 166 111 96 104 150 84 95 186 129 148 159 156 161 168 163 169 175 182 182 179 178 174 174 175 177 189 198 209 204 202 202 210 198 204 209 211 210 259 282 244 235 235
97 74 149 135 152 129 178 161 130 132 135 167 148 94 199 170 157 167 163 165 171 171 172 183 190 193 194 194 194 195 195 197 201 208 214 224 225 224 225 222 217 221 216 232 261 277 282 245 251
94 84 104 183 179 182 170 90 135 107 107 113 142 165 180 200 165 167 178 165 177 178 191 197 195 204 207 210 211 215 218 221 224 227 229 233 234 235 238 239 239 243 244 261 270 283 290 272 261
106 66 146 190 156 178 191 125 289 40 106 56 356 160 182 167 167 167 170 171 179 183 195 203 202 203 207 218 221 220 224 232 243 249 246 245 236 236 243 245 250 253 258 262 272 279 289 296 291
70 77 210 171 212 180 175 143 149 119 115 40 53 48 148 161 166 169 175 184 189 195 200 206 208 208 206 210 217 224 227 244 264 269 256 254 253 249 249 252 255 258 261 263 268 275 280 281 287
138 148 298 1 319 171 156 127 90 123 223 205 170 161 149 162 176 179 188 193 199 205 207 209 212 214 217 220 224 227 228 234 248 256 265 269 265 259 254 258 259 260 266 262 264 267 273 280 283
94 274 161 344 357 84 132 125 122 208 209 180 174 158 163 171 183 189 198 202 205 207 211 213 217 219 224 228 232 235 231 235 243 245 247 251 258 264 269 270 273 266 272 266 266 270 276 279 284
69 297 75 111 71 67 79 54 266 247 349 130 135 159 175 182 195 201 205 208 212 216 216 218 220 223 227 231 237 240 241 244 258 253 244 248 245 255 263 269 273 279 278 275 272 273 277 280 286
60 30 331 18 87 60 103 345 54 326 73 141 157 188 191 193 201 206 213 221 223 225 226 225 224 228 230 235 242 245 248 251 256 258 253 256 255 253 256 264 272 273 280 285 279 280 282 282 282
102 102 22 334 345 122 132 301 225 118 107 153 180 197 210 218 212 218 219 218 205 205 208 203 203 213 227 237 245 248 249 249 252 256 258 259 257 260 265 267 280 280 281 280 281 283 282 283 283
86 59 117 282 185 340 93 243 245 212 151 194 210 226 236 241 223 222 218 208 203 196 191 193 200 209 220 234 244 248 248 250 254 255 257 261 261 261 263 263 272 281 284 274 271 276 278 278 279
8 172 174 297 217 123 156 251 253 213 201 222 219 229 236 251 248 232 219 218 213 202 197 200 208 220 238 252 255 252 251 251 253 255 256 257 260 260 263 264 273 278 281 277 274 272 272 277 277
193 191 230 202 209 194 184 251 265 207 184 224 241 255 259 255 251 240 224 216 200 194 197 206 222 239 253 262 260 253 251 252 253 253 253 251 252 251 260 259 268 280 287 284 281 277 272 274 282
131 149 180 251 235 200 236 237 258 247 244 256 251 249 244 246 253 248 218 195 187 191 199 208 226 244 261 268 259 251 233 227 231 239 238 236 239 242 229 222 278 298 294 295 292 286 288 290 290
134 156 200 287 338 161 277 263 256 258 234 211 236 248 238 229 217 206 191 188 188 194 202 213 225 242 259 263 247 197 172 147 151 161 187 197 206 209 217 225 263 266 282 287 278 280 284 281 281
176 176 166 189 349 16 328 279 234 253 223 243 248 244 242 223 209 197 197 198 195 195 200 212 225 240 249 247 222 187 172 147 137 128 128 146 170 189 217 244 267 278 270 277 282 268 266 275 285
220 179 156 114 71 240 51 284 279 253 262 242 245 242 246 236 201 194 203 199 194 193 196 205 213 228 234 222 204 191 188 169 157 141 131 135 144 155 165 199 248 264 292 291 299 306 320 282 281
212 156 165 151 169 3 231 301 269 277 279 256 253 246 241 232 201 203 198 197 196 191 189 192 192 196 200 195 175 179 183 176 158 150 149 138 128 131 147 190 219 227 249 272 285 282 280 281 293
144 88 59 62 102 260 195 184 226 213 226 261 255 252 253 239 200 200 188 187 184 184 184 179 176 178 171 166 158 160 161 161 163 164 165 158 158 157 172 189 204 230 241 264 279 284 278 262 244
135 120 54 356 292 236 325 202 261 288 259 233 259 271 315 266 194 163 163 167 180 181 179 176 175 173 169 159 151 157 166 172 177 175 174 167 162 148 137 134 130 104 69 62 46 331 359 89 200
175 159 161 198 199 255 114 229 252 247 278 260 269 273 255 189 186 181 177 174 178 182 182 183 181 178 174 165 155 155 158 163 162 163 165 167 162 151 138 157 125 80 63 149 159 163 111 97 104
184 204 157 104 51 47 229 284 289 265 272 267 278 267 249 217 196 184 172 179 185 187 189 189 186 187 183 175 171 171 170 172 175 178 181 183 184 184 186 199 203 179 197 208 200 182 149 133 120
177 157 137 99 219 270 257 257 232 284 244 262 270 263 263 220 190 179 183 186 192 194 195 196 199 198 192 188 186 185 187 193 197 199 200 197 193 193 203 215 213 205 198 188 177 156 139 138 118
155 189 200 148 160 196 261 254 220 234 235 249 235 258 245 219 206 201 191 194 198 200 202 203 203 201 200 199 199 201 202 206 208 209 211 213 211 211 212 210 207 200 182 173 165 149 141 133 122
221 218 198 199 219 238 234 253 223 226 228 201 219 262 277 218 206 203 189 197 202 206 208 209 209 210 210 209 208 209 213 213 215 219 222 222 218 210 207 203 199 189 175 166 163 150 140 131 120